Location: Newark
(48.3831°N, 4.1956°E)
Time: 08:03:02
(UTC+00:00)

Envisat - Pass Details

Date: 20 November 2019
Orbit: 764 x 766 km, 98.1° (Epoch: 10 December)

Event Time Altitude Azimuth Distance (km) Brightness Sun altitude
Rises 05:21:37 0° 27° (NNE) 3,243 6.4 -15.7°
Reaches altitude 10° 05:24:43 10° 47° (NE) 2,310 5.9 -15.2°
Maximum altitude 05:28:06 18° 89° (E) 1,831 6.0 -14.6°
Drops below altitude 10° 05:31:27 10° 131° (SE) 2,298 6.5 -14.1°
Sets 05:34:30 0° 150° (SSE) 3,218 6.9 -13.6°
